sat.trackr.live / text

‹ back to catalog

STARLINK-11744 [DTC]

NORAD 64380 · 2025-127L

PAYLOAD ACTIVE UNKNOWN

§ Identity

Operator
Country
US
Launch date
2025-06-13
Launch site
AFETR
Launch vehicle
Mass (kg)
RCS (m²)

Purposes: comms

External: N2YO · Heavens-Above · Gunter

§ Orbital elements

Epoch: 2026-05-24T13:29:33.140832Z

Period
91.67 min
Inclination
43.0004°
Eccentricity
0.0001873
Mean motion
15.70922186 rev/d
Perigee alt
355.0 km
Apogee alt
357.5 km
Semi-major
6,734.4 km
B*
1.3601e-3
RAAN
347.3352°
Arg perigee
265.7066°
Mean anomaly
94.3587°
Rev number
5,543

§ Raw data

STARLINK-11744 [DTC]1 64380U 25127L   26144.56218913  .00178488  00000+0  13601-2 0  99982 64380  43.0004 347.3352 0001873 265.7066  94.3587 15.70922186 55436

JSON: /api/v1/satellites/64380 · /tle

For live sub-satellite position, see the globe view (requires WebGL).

§ Visibility from observer

Set your observer location to see the next 7 days of passes ≥ 10°. The values pass through the URL so the page stays shareable.

No JS? Fill the form by hand. The geolocation button needs JavaScript.